www.pogodaiklimat.ru

Погода и климат >> Архив погоды >> Россия >> Ненецкий АО >> Шойна


АРХИВ ПОГОДЫ в Шойне

Время (UTC), дата Ветер
(напр.,м/с)
 
Видим.   Явления Облачность Т
(С)
Тd
(С)
f
(%)
Тe
(С)
Тes
(С)
Комфортность P
(гПа)
Po
(гПа)
Тmin
(С)
Tmax
(С)
R
(мм)
R24
(мм)
S
(см)
03 12.02 ЮЗ 10-12
{14}
20 км позёмок 10/10 600 м
[Sc]
-0.9 -1.1 99 -10 -10 999.2 998.6 -0.9 58
06 12.02 Ю 7
{12}
2000 м снег {метель} 10/10 300 м
[Frnb Ns]
-2.2 -2.2 100 -10 -10 998.4 997.7 -2.2
09 12.02 Ю 7 4000 м слаб. снег 10/10 300 м
[Frnb Ns]
-2.2 -2.2 100 -10 -10 997.5 996.8
12 12.02 Ю 8
{10}
4000 м слаб. снег 10/10 300 м
[Frnb Ns]
-1.5 -1.5 100 -10 -10 996.5 995.8
15 12.02 ЮЗ 9-10
{11}
4000 м слаб. снег {метель} 10/10 300 м
[Frnb Ns]
-0.8 -0.8 100 -9 -9 996.4 995.8 -0.8 1
18 12.02 ЮЗ 8
{12}
4000 м слаб. снег {метель} 10/10 300 м
[Frnb Ns]
-1.0 -1.0 100 -9 -9 996.0 995.4
21 12.02 З 5 20 км в посл. час снег {метель} 10/10 600 м
[Sc]
-1.9 -2.0 99 -9 -9 996.3 995.7
00 13.02 З 4 20 км {снег, метель} 3/3 600 м
[Sc]
-5.0 -5.4 97 -12 -12 996.4 995.8
03 13.02 ЮЗ 3 20 км 5/5 600 м
[Sc]
-8.1 -7.9 100 -14 -14 996.4 995.7 -10.6 0.4 69
06 13.02 ЮЗ 4 20 км 10/10 300 м
[Sc]
-4.7 -4.9 98 -11 -11 996.2 995.6
09 13.02 ЮЗ 5 20 км 5/5 600 м
[Sc]
-4.8 -5.2 97 -12 -12 996.6 996.0 -10.6 0.4
12 13.02 ЮЗ 6 20 км 9/9 600 м
[Sc]
-5.3 -5.3 100 -13 -13 996.7 996.0
15 13.02 В 6 4000 м слаб. снег 10/10 300 м
[Frnb Ns]
-7.2 -7.5 98 -16 -16 997.5 996.8 -4.5 0.0
18 13.02 С 7-10
{11}
4000 м слаб. снег {метель} 10/10 300 м
[Frnb Ns]
-3.9 -4.0 99 -12 -12 1001.1 1000.4
21 13.02 С 4
{11}
20 км {снег, метель} 8/8 600 м
[Sc]
-5.6 -6.2 96 -12 -12 1004.5 1003.8
00 14.02 С 5 20 км {снег, метель} 8/8 600 м
[Sc]
-7.4 -8.5 92 -15 -15 1007.1 1006.5
03 14.02 С 4 20 км 10/10 600 м
[Sc]
-5.1 -7.7 82 -11 -11 1009.4 1008.8 -10.7 0.2 69
06 14.02 СЗ 3 20 км 8/6 600 м
[Sc Ac trans]
-5.8 -7.4 88 -11 -11 1011.5 1010.8
09 14.02 З 2 20 км 10/10 600 м
[Sc]
-3.2 -7.0 75 -7 -7 1012.4 1011.8
12 14.02 ЮЗ 4 20 км 4/1 600 м
[Sc Ci fib]
-5.5 -7.7 84 -12 -12 1011.6 1010.9
15 14.02 ЮЗ 4 20 км 3/0
[Ac trans Cc]
-12.6 -13.2 95 -20 -20 1010.1 1009.5 -2.9
18 14.02 Ю 9-10
{10}
20 км позёмок 10/4 600 м
[Sc Ac trans Cc]
-11.9 -12.2 98 -22 -22 1005.4 1004.8
21 14.02 Ю 9-10
{11}
20 км позёмок 10/0
[Ac trans Cc]
-7.4 -8.0 95 -17 -17 1001.2 1000.6
00 15.02 Ю 12-16
{18}
4000 м метель 10/10 600 м
[Sc]
-8.4 -8.4 100 -20 -20 994.3 993.7
03 15.02 Ю 13-16
{17}
4000 м метель 10/10 600 м
[Sc]
-10.0 -10.1 99 -22 -22 989.2 988.6 -14.8 68
06 15.02 Ю 11-13
{18}
1000 м слаб. снег {метель} 10/10 300 м
[Frnb Ns]
-8.8 -8.8 100 -20 -20 986.2 985.6
09 15.02 Ю 10-15
{15}
4000 м метель {снег} 10/8 300 м
[Frnb Ac As]
-8.3 -8.3 100 -19 -19 985.0 984.4
12 15.02 Ю 7
{15}
20 км позёмок {снег} 10/8 300 м
[Frnb As op]
-5.4 -5.7 98 -14 -14 984.5 983.9
15 15.02 ЮЗ 4 4000 м слаб. снег {метель} 10/10 300 м
[Frnb Ns]
-4.4 -4.5 99 -11 -11 985.0 984.4 -4.4 0.3
18 15.02 СЗ 5 4000 м слаб. снег {метель} 10/0
[Ac As]
-2.3 -2.3 100 -9 -9 986.7 986.1
21 15.02 СЗ 5 20 км {снег} 3/0
[Ac trans]
-3.5 -3.7 99 -11 -11 989.5 988.9
00 16.02 СЗ 7-10
{11}
20 км позёмок {снег} 8/4 300 м
[Cb calv Ac As]
-2.6 -2.6 100 -11 -11 992.3 991.7
03 16.02 СЗ 8-11
{11}
20 км позёмок {ливн. осадки} 8/3 600 м
[Sc Ac As]
-2.6 -3.3 95 -11 -11 994.7 994.1 -4.4 1 68
06 16.02 СЗ 5
{11}
20 км {ливн. осадки, метель} 3/3 600 м
[Sc Ci fib]
-4.3 -4.9 96 -12 -12 996.3 995.7
09 16.02 СЗ 5 20 км {ливн. осадки} 4/4 600 м
[Sc]
-4.2 -5.8 89 -11 -11 996.9 996.2
12 16.02 З 4 20 км {ливн. осадки} 8/4 600 м
[Sc Cs]
-6.7 -7.2 96 -13 -13 995.8 995.1
15 16.02 Ю 5 20 км 8/8 600 м
[Sc]
-6.8 -7.0 98 -14 -14 991.9 991.3 -2.6 0.0
18 16.02 Ю 9-11
{11}
4000 м слаб. снег {метель} 10/8 300 м
[Frnb As op]
-5.1 -5.4 98 -15 -15 986.7 986.1
21 16.02 ЮВ 13-16
{17}
500 м снег {метель} 10/10 300 м
[Frnb Ns]
-5.2 -5.3 99 -16 -16 979.6 979.0
00 17.02 Ю 10-12
{17}
4000 м слаб. снег {метель} 10/10 300 м
[Frnb Ns]
-4.3 -4.4 99 -14 -14 975.2 974.6
03 17.02 Ю 3
{12}
н/о {снег, метель} н/о -3.2 -3.2 100 -9 -9 973.8 973.1 -7.1 0.8 73
06 17.02 В 3
{11}
20 км {снег, метель} 9/8 600 м
[Sc Ac trans]
-4.5 -4.5 100 -10 -10 974.3 973.6
09 17.02 СВ 8-10
{10}
20 км позёмок {ливн. осадки} 10/10 600 м
[Sc]
-4.2 -4.5 98 -13 -13 977.7 977.1
12 17.02 С 13-18
{19}
500 м ливневой снег {метель} 10/10 300 м
[Cb calv]
-4.6 -4.7 99 -15 -15 983.5 982.9
15 17.02 С 11-17
{20}
500 м ливневой снег {метель} 10/10 300 м
[Cb calv]
-6.3 -6.6 98 -17 -17 990.1 989.5 -3.2 3
18 17.02 С 10-13
{20}
4000 м метель {снег} 3/3 600 м
[Sc]
-8.4 -9.5 92 -19 -19 996.2 995.6
21 17.02 С 6-10
{15}
20 км {метель} 3/3 600 м
[Sc Ci fib]
-9.1 -10.2 92 -18 -18 999.5 998.9
00 18.02 С 10-14
{19}
4000 м метель 3/3 600 м
[Sc]
-9.0 -10.2 91 -20 -20 1002.2 1001.5
03 18.02 С 6-11
{15}
20 км {метель} 8/8 600 м
[Sc]
-8.7 -9.5 94 -17 -17 1003.7 1003.1 -10.4 0.0 66
06 18.02 С 4
{15}
20 км в посл. час ливневой снег {метель} 8/8 300 м
[Cb calv]
-9.6 -10.2 95 -17 -17 1004.9 1004.3 -10.9
09 18.02 СВ 1
{10}
20 км {ливн. осадки, метель} 6/6 300 м
[Cb calv]
-9.2 -10.7 89 -12 -11 1006.6 1006.0
12 18.02 ЮЗ 1
{10}
20 км {ливн. осадки, метель} 8/8 300 м
[Cb calv]
-9.6 -9.8 98 -12 -12 1006.8 1006.2
15 18.02 З 6 20 км {ливн. осадки} 4/4 300 м
[Cb calv]
-9.0 -9.0 100 -18 -18 1006.0 1005.3 -7.2 2
18 18.02 З 6
{10}
4000 м слаб. ливневой снег {метель} 10/10 300 м
[Cb calv]
-7.4 -7.4 100 -16 -16 1003.2 1002.6
21 18.02 ЮЗ 6
{10}
20 км {ливн. осадки, метель} 10/3 300 м
[Cb calv Ac trans Cc]
-9.3 -10.0 95 -18 -18 1001.3 1000.6
00 19.02 Ю 7
{10}
4000 м слаб. ливневой снег {метель} 10/10 300 м
[Cb calv]
-10.2 -10.3 99 -19 -19 997.9 997.2

 

Местоположение метеостанции Шойна (Ненецкий АО, Россия): широта 67.88 долгота 44.17 высота над уровнем моря 8 м.

В архиве по умолчанию представлена погода в Шойне за последнюю неделю. Архивные данные за месяц целиком и за предыдущие месяцы, начиная с января 2011 года, Вы можете получить, выбрав интересующий диапазон дат из раскрывающегося списка и нажав кнопку "Ввод!".


*Определитесь, кто Вы:
робот инопланетянин человек

Внимание! Время в таблицах - всемирное. Для получения местного времени необходимо прибавить поправку, которая равна 3 ч.

Смотрите также архив погоды в соседних городах и на ближайших метеорологических станциях:

Погода в Канином Носе (Ненецкий АО, Россия) (93 км)
Погода на Мысе Микулкин (Ненецкий АО, Россия) (105 км)
Погода в Неси (Ненецкий АО, Россия) (144 км)
Погода на Моржовец Острове (Архангельская область, Россия) (148 км)
Погода в Абрамовском маяке (Архангельская область, Россия) (172 км)
Погода в Святом Носе (Мурманская область, Россия) (186 км)
Погода в Индиге (Ненецкий АО, Россия) (191 км)
Погода в Иоканьге (Мурманская область, Россия) (196 км)
Погода в Нижней Пеше (Ненецкий АО, Россия) (199 км)
Погода в Каневке (Мурманская область, Россия) (209 км)

Пояснения к столбцам:

Ветер - указаны скорость ветра в м/с - средняя за 10 мин, порывы в срок и между сроками (в фигурных скобках) и направление, откуда дует ветер: С - северный, СВ - северо-восточный, В - восточный, ЮВ - юго-восточный, Ю - южный, ЮЗ - юго-западный, З - западный, СЗ - северо-западный.
Видимость - горизонтальная дальность видимости в метрах или километрах. При видимости от 1 до 10 км при отсутствии осадков обычно наблюдается дымка, при ухудшении видимости до 1 км и менее - туман. В сухую погоду видимость может ухудшаться дымом, пылью или мглою.
Явления - указаны атмосферные явления, наблюдавшиеся в срок или в последний час перед сроком; фигурными скобками обозначены явления, наблюдавшиеся между сроками (за 1-3 часа до срока); квадратными скобками обозначены град или гололедные отложения с указанием их диаметра в мм.
Облачность - указаны через наклонную черту общая и нижняя облачность в баллах и высота нижней границы облаков в метрах; квадратными скобками обозначены формы облаков: Ci - перистые, Cs - перисто-слоистые, Cc - перисто-кучевые, Ac - высококучевые, As - высокослоистые, Sc - слоисто-кучевые, Ns - слоисто-дождевые, Cu - кучевые, Cb - кучево-дождевые. Подробнее классификацию облаков см. в Атласе облаков (PDF).
T - Температура воздуха - температура, измеренная на высоте 2 м над землей.
Td - Температура точки росы - температура, при понижении до которой содержащийся в воздухе водяной пар достигнет насыщения.
f - Относительная влажность воздуха - влажноcть воздуха, измеренная на высоте 2 м над землей.
Te - Эффективная температура - температура, которую ощущает одетый по сезону человек в тени. Характеристика душности погоды. При расчете учитывается влияние влажности воздуха и скорости ветра на теплоощущения человека.
Tes - Эффективная температура на солнце - температура, которую ощущает человек, с поправкой на солнечный нагрев. Характеристика знойности погоды. Зависит от высоты солнца над горизонтом, облачности и скорости ветра. Ночью, в пасмурную погоду, а также при ветре 12 м/с и более поправка равна нулю.
P - Атмосферное давление - приведенное к уровню моря атмосферное давление.
Po - Атмосферное давление - измеренное на уровне метеостанции атмосферное давление.
Tmin - Минимальная температура - минимум температуры воздуха на высоте 2 м над землей.
Tmax - Максимальная температура - максимум температуры воздуха на высоте 2 м над землей.
R - Количество осадков - Количество выпавших осадков за период времени, мм. При наведении курсора мыши на число - период времени, за который выпало указанное количество осадков.
R24 - Количество осадков - Количество выпавших осадков за 24 часа, мм.
S - Снежный покров - Высота снежного покрова, см. При наведении курсора мыши на число - состояние снежного покрова и степень покрытия местности в баллах.